Regional Weather Roundup
Issued by NWS

Home | Current Version | Previous Version | Text Only | Print | Product List | Glossary Off
Versions: 1 2 3 4 5 6 7 8 9 10 11 12 13 14 15 16 17 18 19 20 21 22 23 24 25 26 27 28 29 30 31 32 33 34 35 36 37 38 39 40 41 42 43 44 45 46 47 48 49 50

000
ASUS43 KFSD 292110
RWRSD

WEATHER ROUNDUP FOR SOUTH DAKOTA
NATIONAL WEATHER SERVICE SIOUX FALLS SD
400 PM CDT MON AUG 29 2016

NOTE: "FAIR" INDICATES FEW OR NO CLOUDS BELOW 12,000 FEET WITH NO
SIGNIFICANT WEATHER AND/OR OBSTRUCTIONS TO VISIBILITY.


SDZ001>005-009-010-012>017-292200-
NORTHWEST AND NORTH CENTRAL SOUTH DAKOTA

CITY           SKY/WX    TMP DP  RH WIND       PRES   REMARKS
BUFFALO          N/A     82  47  29 E17       30.20F
FAITH            N/A     85  47  26 NE21      30.20F
MOBRIDGE       SUNNY     88  53  30 NE13G22   30.16F
$$

SDZ012>016-024>037-041>051-057-063-072>074-292200-
SOUTHWEST AND SOUTH CENTRAL SOUTH DAKOTA

CITY           SKY/WX    TMP DP  RH WIND       PRES   REMARKS
RAPID CTY ARPT SUNNY     83  58  42 NE13      30.24F
PIERRE         SUNNY     89  63  41 NE8G17    30.11F
CUSTER         SUNNY     74  50  42 NE15G25   30.37F
ELLSWORTH AFB  SUNNY     82  57  42 NE8       30.24
PHILIP         SUNNY     86  65  49 E14       30.16F
PINE RIDGE     CLOUDY    85  58  39 NE6       30.22F
WINNER         FAIR      92  64  39 SE7       30.13F
$$

SDZ004>011-016>023-039-040-292200-
NORTHEAST SOUTH DAKOTA

CITY           SKY/WX    TMP DP  RH WIND       PRES   REMARKS
ABERDEEN       MOSUNNY   84  70  62 NE8       30.14F
WATERTOWN      MOSUNNY   88  69  53 SW14      30.14F
BROOKINGS      PTSUNNY   84  72  67 S13       30.15F
SISSETON         N/A     86  71  60 N8        30.12F
$$

SDZ017-020-022-023-036>040-048>070-292200-
SOUTHEAST SOUTH DAKOTA

CITY           SKY/WX    TMP DP  RH WIND       PRES   REMARKS
SIOUX FALLS    CLOUDY    83  71  67 S10       30.14F
HURON          MOSUNNY   89  70  53 S15       30.10F
CHAMBERLAIN    CLOUDY    92  68  45 S13       30.12F HX  96
MITCHELL       MOSUNNY   87  69  54 S12G18    30.12F
YANKTON        CLOUDY    82  63  51 SE7       30.12F
$$

ABBREVIATIONS USED IN REMARKS
   TC - TEMPERATURE IN CELSIUS
  WCI - WIND CHILL INDEX
   HX - HEAT INDEX
  VSB - VISIBILITY




USA.gov is the U.S. government's official web portal to all federal, state and local government web resources and services.